Flag for Germany Weather past 2 weeks in Berlin, Berlin, Germany

Now
65 °F

Mild.


Feels Like: 65 °F
Forecast: 63 / 86 °F
Wind: 2 mph from Northeast

Location: Berlin-Tempelhof

Current Time: Aug 2, 2015 at 8:24:35 AM

Latest Report: Aug 2, 2015 at 8:00 AM


Visibility: N/A

Pressure: 30.08 "Hg

Humidity: 57%

Dew point: 49 °F

Location of BerlinLocation

Historic Weather in Berlin — Graph

°F

Berlin temperature yesterday

Maximum temperature yesterday: 79 °F (at 5:00 PM)
Minimum temperature yesterday: 47 °F (at 4:00 AM)
Average temperature yesterday: 64 °F

Past Weeks' High & Low Weather Summary

 TemperatureHumidityPressure
High86 °F (Jul 22, 7:00 PM)98% (Jul 19, 1:00 PM)30.12 "Hg (Jul 19, 1:00 PM)
Low47 °F (Aug 1, 4:00 AM)27% (Aug 1, 5:00 PM)29.55 "Hg (Jul 25, 9:00 AM)
Average67 °F62%29.86 "Hg
* Reported Jul 18 7:00 AM — Aug 2 7:00 AM, Berlin, Weather by CustomWeather, © 2015

Note: Actual official high and low records may vary slightly from our data, if they occured in-between our weather recording intervals... More about our weather records

Advertising

Berlin weather history for previous 24 hours

 ConditionsComfort  
Time TempWeatherWind HumidityBarometerVisibility
7:00 AM
Sun, Aug 2
60 °FCool.2 mph66%30.07 "HgN/A
6:00 AM58 °FCool.2 mph68%30.06 "HgN/A
5:00 AM60 °FCool.2 mph63%30.05 "HgN/A
4:00 AM60 °FCool.2 mph62%30.04 "HgN/A
1:00 AM65 °FMild.2 mph53%30.04 "HgN/A
11:00 PM
Sat, Aug 1
67 °FMild.3 mph50%30.03 "HgN/A
10:00 PM69 °FMild.3 mph46%30.02 "HgN/A
9:00 PM73 °FMild.2 mph40%30.00 "HgN/A
8:00 PM76 °FMild.2 mph34%29.98 "HgN/A
7:00 PM78 °FPleasantly warm.2 mph30%29.99 "HgN/A
6:00 PM79 °FPleasantly warm.3 mph28%30.00 "HgN/A
5:00 PM79 °FPleasantly warm.3 mph27%30.00 "HgN/A
4:00 PM78 °FPleasantly warm.3 mph31%30.01 "HgN/A
3:00 PM77 °FMild.3 mph33%30.03 "HgN/A
2:00 PM74 °FMild.3 mph35%30.05 "HgN/A
1:00 PM72 °FMild.3 mph38%30.06 "HgN/A
12:00 PM71 °FMild.5 mph40%30.08 "HgN/A
11:00 AM69 °FMild.5 mph42%30.09 "HgN/A
10:00 AM65 °FMild.5 mph47%30.09 "HgN/A
9:00 AM61 °FRefreshingly cool.5 mph54%30.09 "HgN/A
8:00 AM54 °FCool.2 mph75%30.10 "HgN/A
Weather by CustomWeather, © 2015

See weather overviewHow to use our weather pages